STARLINK AU

Last updated on June 19, 2020, 12:02 a.m. UTC

1 45772U 20038AU  20170.75001157  .00114593  11275-4  14227-3 0  9996
2 45772  52.9998 271.8084 0111368  69.6054 147.1080 15.96148271  2130

Satellite is not in orbit.